SDO

Last updated on Thu Oct 30 2025 00:02:48 GMT+0000 (Coordinated Universal Time)

1 36395U 10005A 25302.44585251 -.00000040 00000+0 00000+0 0 9991 2 36395 34.1650 89.8643 0001595 138.7355 228.3443 1.00272506 57750
UTC large
Height (km)
Speed (km/s)
/
Latitude / Longitude
Inclination (degrees)
Orbital Period (minutes)
Azimuth
Elevation
Range (km)
Doppler Factor

Next 0 passes for location: London (51.5072 / 0.1276)

Sorry there are no passes over London.